Tracking 33744 objects as of 13-Apr-2026
HD Live streaming from Space Station
objects crossing your sky now

STARLINK-36818

Track STARLINK-36818 now!
10-day predictions
STARLINK-36818 is classified as:


NORAD ID: 67879
Int'l Code: 2026-035A
Perigee: 414.3 km
Apogee: 416.6 km
Inclination: 97.3 °
Period: 92.7 minutes
Semi major axis: 6786 km
RCS: Unknown
Launch date: February 21, 2026
Source: United States (US)
Launch site: AIR FORCE WESTERN TEST RANGE (AFWTR)
Your satellite tracking list
Your tracking list is empty




NASA's NSSDC Master Catalog

Two Line Element Set (TLE):
1 67879U 26035A   26102.91668981 -.00335056  00000-0 -56341-2 0  9997
2 67879  97.2847  36.9101 0001651  89.1422 299.4615 15.52878459  6360
Source of the keplerian elements: AFSPC